Flag for U.S.A. Weather past 2 weeks in Wichita Falls, Texas, U.S.A.

35 °F

Light rain. Mostly cloudy.

Feels Like: 30 °F
Forecast: 36 / 41 °F
Wind: 6 mph from North

Location: Wichita Falls - Sheppard Air Force Base

Current Time: Nov 29, 2015 at 7:15:40 AM

Latest Report: Nov 29, 2015 at 6:52 AM

Visibility: 7 mi

Pressure: 30.26 "Hg

Humidity: 92%

Dew point: 33 °F

Location of Wichita FallsLocation

Historic Weather in Wichita Falls — Graph


Wichita Falls temperature yesterday

Maximum temperature yesterday: 37 °F (at 1:01 PM)
Minimum temperature yesterday: 33 °F (at 1:52 AM)
Average temperature yesterday: 35 °F

Past Weeks' High & Low Weather Summary

High76 °F (Nov 25, 12:59 PM)97% (Nov 16, 6:52 AM)30.45 "Hg (Nov 16, 6:52 AM)
Low26 °F (Nov 22, 6:52 AM)22% (Nov 23, 2:52 PM)29.39 "Hg (Nov 16, 11:52 PM)
Average51 °F70%30.05 "Hg
* Reported Nov 14 5:52 AM — Nov 29 5:52 AM, Wichita Falls, Weather by CustomWeather, © 2015

Note: Actual official high and low records may vary slightly from our data, if they occured in-between our weather recording intervals... More about our weather records


Wichita Falls weather history for previous 24 hours

Time TempWeatherWind HumidityBarometerVisibility
5:52 AM
Sun, Nov 29
35 °FLight rain. Fog.6 mph92%30.24 "Hg5 mi
4:59 AM35 °FLight rain. Overcast.14 mph92%30.24 "Hg8 mi
3:52 AM35 °FLight rain. Fog.10 mph92%30.21 "Hg5 mi
2:52 AM35 °FRain. Fog.10 mph92%30.22 "Hg3 mi
1:52 AM35 °FRain. Fog.9 mph92%30.28 "Hg3 mi
12:52 AM35 °FOvercast.9 mph88%30.29 "Hg10 mi
11:52 PM
Sat, Nov 28
35 °FLight rain. Overcast.12 mph88%30.29 "Hg10 mi
10:52 PM35 °FPassing clouds.10 mph88%30.30 "Hg10 mi
9:52 PM36 °FMostly cloudy.10 mph85%30.30 "Hg10 mi
8:52 PM35 °FOvercast.12 mph88%30.32 "Hg10 mi
7:52 PM35 °FOvercast.9 mph88%30.30 "Hg10 mi
6:52 PM35 °FLight rain. Mostly cloudy.13 mph88%30.28 "Hg10 mi
5:52 PM35 °FOvercast.14 mph88%30.27 "Hg10 mi
4:52 PM36 °FOvercast.10 mph89%30.27 "Hg10 mi
3:52 PM37 °FLight rain. Overcast.15 mph86%30.26 "Hg10 mi
2:52 PM37 °FLight rain. Overcast.10 mph89%30.27 "Hg10 mi
1:52 PM36 °FOvercast.14 mph89%30.29 "Hg10 mi
1:01 PM37 °FLight rain. Overcast.14 mph89%30.27 "Hg10 mi
11:52 AM36 °FMostly cloudy.13 mph89%30.31 "Hg10 mi
10:52 AM36 °FLight rain. Fog.16 mph89%30.32 "Hg5 mi
9:52 AM35 °FLight rain. Overcast.14 mph88%30.34 "Hg10 mi
8:59 AM34 °FLight rain. Cloudy.13 mph97%30.29 "Hg10 mi
7:52 AM34 °FLight rain. Mostly cloudy.13 mph92%30.33 "Hg10 mi
Weather by CustomWeather, © 2015

See weather overviewHow to use our weather pages